Date String (YYYY-MM-DD hh:mm:ss) UTC,Instrument flags,Ambient pressure (hPa),Sample flow (lpm),Bypass flow (lpm),Sample temperature (°C),Ambient temperature (°C),ASC tube jacket temperature (°C),LED temperature (°C),Box temperature (°C),Sample RH (%),Span deviation,Mass concentration (μg/m³),Mass concentration (μg/m³),Mass concentration (μg/m³)
DateTimeUTC,F1_M11,P_M11,Q1_M11,Q2_M11,T1_M11,T2_M11,T3_M11,T4_M11,T5_M11,U1_M11,ZSPAN_M11,X0_M11,X2_M11,X1_M11
2022-04-07 20:00:00,,0832.1,5.00,0.00,25.6,24.9,00.0,34.3,27.4,04.9,0000.0,0006.49,0001.97,0001.12
2022-04-07 20:01:00,,0832.0,4.99,0.00,25.5,24.9,00.0,34.3,27.4,04.9,0000.0,0006.06,0001.92,0001.13
2022-04-07 20:02:00,,0832.0,5.01,0.00,25.5,24.8,00.0,34.3,27.3,05.0,0000.0,0006.43,0001.85,0001.14
2022-04-07 20:03:00,,0832.0,5.01,0.00,25.6,24.8,00.0,34.3,27.4,04.9,0000.0,0006.49,0001.88,0001.14
2022-04-07 20:04:00,,0831.9,5.00,0.00,25.6,24.9,00.0,34.4,27.4,04.9,0000.0,0006.30,0001.94,0001.15
2022-04-07 20:05:00,,0831.7,5.00,0.00,25.6,24.9,00.0,34.4,27.4,04.9,0000.0,0006.34,0002.00,0001.15
2022-04-07 20:06:00,,0831.7,5.01,0.00,25.6,24.9,00.0,34.4,27.4,05.1,0000.0,0006.82,0002.10,0001.15
2022-04-07 20:07:00,,0831.7,5.01,0.00,25.6,24.9,00.0,34.4,27.5,05.2,0000.0,0007.00,0002.16,0001.16
2022-04-07 20:08:00,,0831.8,4.99,0.00,25.6,24.9,00.0,34.4,27.4,05.4,0000.0,0007.14,0002.16,0001.15
2022-04-07 20:09:00,,0831.9,5.00,0.00,25.6,24.8,00.0,34.4,27.4,05.3,0000.0,0007.12,0002.19,0001.14
2022-04-07 20:10:00,,0831.8,5.00,0.00,25.6,24.8,00.0,34.4,27.4,05.2,0000.0,0006.52,0002.19,0001.14
2022-04-07 20:11:00,,0831.8,5.01,0.00,25.6,24.8,00.0,34.5,27.4,05.4,0000.0,0007.35,0002.17,0001.15
2022-04-07 20:12:00,,0831.7,5.00,0.00,25.6,24.8,00.0,34.5,27.3,05.4,0000.0,0007.60,0002.19,0001.14
2022-04-07 20:13:00,,0831.7,5.00,0.00,25.6,24.8,00.0,34.5,27.4,05.3,0000.0,0007.32,0002.23,0001.14
2022-04-07 20:14:00,,0831.7,5.00,0.00,25.6,24.8,00.0,34.5,27.4,05.5,0000.0,0007.28,0002.18,0001.14
2022-04-07 20:15:00,,0831.8,5.00,0.00,25.6,24.7,00.0,34.5,27.3,05.5,0000.0,0007.45,0002.17,0001.14
2022-04-07 20:16:00,,0831.7,5.00,0.00,25.5,24.7,00.0,34.5,27.3,05.5,0000.0,0007.51,0002.19,0001.16
2022-04-07 20:17:00,,0831.7,4.99,0.00,25.5,24.7,00.0,34.5,27.3,05.5,0000.0,0007.29,0002.14,0001.17
2022-04-07 20:18:00,,0831.8,4.99,0.00,25.5,24.7,00.0,34.4,27.3,05.4,0000.0,0007.12,0002.10,0001.15
2022-04-07 20:19:00,,0832.0,5.00,0.00,25.5,24.7,00.0,34.4,27.2,05.4,0000.0,0007.00,0002.10,0001.16
2022-04-07 20:20:00,,0832.1,5.00,0.00,25.5,24.7,00.0,34.4,27.2,05.3,0000.0,0006.83,0002.07,0001.17
2022-04-07 20:21:00,,0832.1,5.00,0.00,25.5,24.7,00.0,34.4,27.2,05.1,0000.0,0006.14,0002.12,0001.17
2022-04-07 20:22:00,,0832.1,5.00,0.00,25.5,24.7,00.0,34.4,27.3,05.1,0000.0,0005.24,0002.21,0001.17
2022-04-07 20:23:00,,0832.1,5.00,0.00,25.5,24.8,00.0,34.5,27.3,05.2,0000.0,0005.05,0002.27,0001.17
2022-04-07 20:24:00,,0832.0,5.00,0.00,25.6,24.8,00.0,34.5,27.3,05.3,0000.0,0005.03,0002.22,0001.17
2022-04-07 20:25:00,,0832.0,5.00,0.00,25.6,24.8,00.0,34.5,27.3,05.3,0000.0,0006.06,0002.26,0001.17
2022-04-07 20:26:00,,0832.0,5.00,0.00,25.6,24.8,00.0,34.5,27.3,05.2,0000.0,0005.99,0002.28,0001.17
2022-04-07 20:27:00,,0831.9,4.99,0.00,25.6,24.8,00.0,34.5,27.4,05.2,0000.0,0005.78,0002.21,0001.15
2022-04-07 20:28:00,,0832.0,4.99,0.00,25.6,24.8,00.0,34.5,27.4,05.4,0000.0,0006.29,0002.23,0001.14
2022-04-07 20:29:00,,0831.9,4.99,0.00,25.6,24.8,00.0,34.5,27.4,05.1,0000.0,0006.45,0002.22,0001.14
2022-04-07 20:30:00,,0831.9,5.00,0.00,25.6,24.8,00.0,34.5,27.3,05.3,0000.0,0006.68,0002.22,0001.13
2022-04-07 20:31:00,,0832.0,5.00,0.00,25.6,24.7,00.0,34.5,27.3,05.4,0000.0,0006.98,0002.23,0001.12
2022-04-07 20:32:00,,0832.0,4.99,0.00,25.5,24.8,00.0,34.5,27.3,05.3,0000.0,0006.91,0002.21,0001.12
2022-04-07 20:33:00,,0832.0,5.00,0.00,25.6,24.8,00.0,34.5,27.3,05.1,0000.0,0006.68,0002.15,0001.12
2022-04-07 20:34:00,,0831.9,4.99,0.00,25.6,24.8,00.0,34.5,27.3,05.0,0000.0,0006.74,0002.06,0001.12
2022-04-07 20:35:00,,0831.8,5.01,0.00,25.6,24.8,00.0,34.5,27.3,05.1,0000.0,0006.80,0002.05,0001.12
2022-04-07 20:36:00,,0831.7,4.99,0.00,25.6,24.8,00.0,34.5,27.3,05.2,0000.0,0005.89,0002.03,0001.11
2022-04-07 20:37:00,,0831.6,5.00,0.00,25.6,24.8,00.0,34.5,27.4,05.2,0000.0,0005.73,0001.96,0001.09
2022-04-07 20:38:00,,0831.6,5.00,0.00,25.6,24.8,00.0,34.5,27.4,05.1,0000.0,0005.78,0001.94,0001.09
2022-04-07 20:39:00,,0831.7,5.00,0.00,25.6,24.9,00.0,34.5,27.4,05.3,0000.0,0005.29,0001.91,0001.09
2022-04-07 20:40:00,,0831.7,4.99,0.00,25.6,24.8,00.0,34.5,27.4,05.1,0000.0,0005.11,0001.92,0001.10
2022-04-07 20:41:00,,0831.7,5.00,0.00,25.6,24.8,00.0,34.5,27.4,05.0,0000.0,0004.95,0001.93,0001.11
2022-04-07 20:42:00,,0831.6,5.01,0.00,25.6,24.9,00.0,34.5,27.4,05.1,0000.0,0005.96,0001.92,0001.12
2022-04-07 20:43:00,,0831.6,5.01,0.00,25.6,24.9,00.0,34.5,27.4,05.0,0000.0,0006.60,0001.91,0001.11
2022-04-07 20:44:00,,0831.7,4.99,0.00,25.7,24.9,00.0,34.5,27.5,05.1,0000.0,0006.71,0001.94,0001.12
2022-04-07 20:45:00,,0831.7,5.00,0.00,25.7,25.0,00.0,34.5,27.5,04.8,0000.0,0006.66,0001.95,0001.12
2022-04-07 20:46:00,,0831.6,5.01,0.00,25.7,25.0,00.0,34.6,27.5,05.0,0000.0,0006.29,0001.99,0001.13
2022-04-07 20:47:00,,0831.5,4.99,0.00,25.7,25.0,00.0,34.6,27.5,04.8,0000.0,0006.65,0002.02,0001.15
2022-04-07 20:48:00,,0831.7,5.00,0.00,25.7,25.0,00.0,34.6,27.5,04.3,0000.0,0007.62,0002.05,0001.16
2022-04-07 20:49:00,,0831.6,5.00,0.00,25.7,25.0,00.0,34.6,27.5,04.3,0000.0,0008.81,0002.12,0001.17
2022-04-07 20:50:00,,0831.6,4.99,0.00,25.7,25.0,00.0,34.6,27.5,04.6,0000.0,0009.48,0002.13,0001.18
2022-04-07 20:51:00,,0831.6,5.00,0.00,25.7,25.0,00.0,34.6,27.6,04.7,0000.0,0009.49,0002.13,0001.17
2022-04-07 20:52:00,,0831.6,5.00,0.00,25.7,25.0,00.0,34.6,27.5,04.8,0000.0,0009.43,0002.10,0001.16
2022-04-07 20:53:00,,0831.6,5.01,0.00,25.7,25.1,00.0,34.6,27.5,04.7,0000.0,0009.14,0002.09,0001.15
2022-04-07 20:54:00,,0831.6,5.00,0.00,25.8,25.1,00.0,34.6,27.6,04.6,0000.0,0008.32,0002.08,0001.15
2022-04-07 20:55:00,,0831.6,5.00,0.00,25.8,25.1,00.0,34.6,27.6,05.0,0000.0,0008.24,0002.04,0001.14
2022-04-07 20:56:00,,0831.7,5.00,0.00,25.8,25.1,00.0,34.6,27.6,05.1,0000.0,0008.72,0002.07,0001.15
2022-04-07 20:57:00,,0831.7,5.01,0.00,25.8,25.1,00.0,34.6,27.6,05.2,0000.0,0009.28,0002.10,0001.14
2022-04-07 20:58:00,,0831.6,4.99,0.00,25.8,25.1,00.0,34.7,27.6,05.4,0000.0,0009.17,0002.11,0001.13
2022-04-07 20:59:00,,0831.5,4.99,0.00,25.8,25.1,00.0,34.7,27.6,05.2,0000.0,0008.27,0002.05,0001.14
